Overview Statistics Trail Chart Weather Telemetry Raw packets
 

This is the latest recevied weather packets stored in our database for station/object KB1WCR. If no packets are shown the sender has not sent any weather packets the latest 10 day(s).

<< 36 37 38 39 40 41 42 >>
Time Temp. Humidity Pressure Rain* Wind** Luminosity Snow
1788164993 12.22° C 98% 1018.8 hPa 0 mm - 0 W/m² -
1788164688 12.78° C 97% 1018.8 hPa 0 mm - 0 W/m² -
1788164383 12.78° C 97% 1018.8 hPa 0 mm - 0 W/m² -
1788164079 13.33° C 95% 1018.6 hPa 0 mm - 0 W/m² -
1788163775 13.89° C 94% 1018.6 hPa 0 mm - 0 W/m² -
1788163469 13.89° C 94% 1018.6 hPa 0 mm - 0 W/m² -
1788163165 13.89° C 95% 1018.4 hPa 0 mm - 0 W/m² -
1788162860 13.89° C 95% 1018.2 hPa 0 mm - 0 W/m² -
1788162556 13.89° C 95% 1018.5 hPa 0 mm - 0 W/m² -
1788162255 13.89° C 95% 1018.4 hPa 0 mm - 0 W/m² -
1788161950 13.89° C 95% 1018.5 hPa 0 mm - 0 W/m² -
1788161649 13.89° C 95% 1018.3 hPa 0 mm - 0 W/m² -
1788161344 13.89° C 95% 1018.4 hPa 0 mm - 0 W/m² -
1788161039 13.89° C 95% 1018.4 hPa 0 mm - 0 W/m² -
1788160736 13.89° C 94% 1018.3 hPa 0 mm - 0 W/m² -
1788160434 14.44° C 94% 1018.4 hPa 0 mm - 0 W/m² -
1788160129 14.44° C 93% 1018.4 hPa 0 mm - 0 W/m² -
1788159828 15° C 93% 1018.4 hPa 0 mm - 0 W/m² -
1788159528 15° C 93% 1018.3 hPa 0 mm - 0 W/m² -
1788159225 15° C 94% 1018.2 hPa 0 mm - 0 W/m² -
1788158921 14.44° C 94% 1018.2 hPa 0 mm - 0 W/m² -
1788158312 15° C 94% 1018.2 hPa 0 mm - 0 W/m² -
1788158007 15° C 93% 1018.3 hPa 0 mm - 0 W/m² -
1788157707 15° C 93% 1018.2 hPa 0 mm - 0 W/m² -
1788157402 15° C 94% 1018.1 hPa 0 mm - 0 W/m² -

* Rain latest hour (hover to see other rain measurements)
** Current wind speed in m/s (hover to see current wind gust speed)